owner,sensor,date,latitude,longitude,vertical_datum,direction_of_sea_water_velocity,sea_water_speed,upward_sea_water_velocity,qcFlag 
TABS,ioos:station:wmo:42044:1,2002-08-01T00:00:00Z,26.1914,-97.0507,2.0,32.77295222,6.410382204,-99999.0,'11133222,11111222,99999999' 
TABS,ioos:station:wmo:42044:1,2002-08-01T00:30:00Z,26.1914,-97.0507,2.0,4.911987145,3.854153604,-99999.0,'11133222,11111222,99999999' 
TABS,ioos:station:wmo:42044:1,2002-08-01T01:00:00Z,26.1914,-97.0507,2.0,344.2043184,4.738955581,-99999.0,'11133222,11111222,99999999' 
TABS,ioos:station:wmo:42044:1,2002-08-01T01:30:00Z,26.1914,-97.0507,2.0,312.5571833,5.308125846,-99999.0,'11133222,11111222,99999999' 
TABS,ioos:station:wmo:42044:1,2002-08-01T02:00:00Z,26.1914,-97.0507,2.0,318.1634365,5.382211441,-99999.0,'11133222,11111222,99999999' 
TABS,ioos:station:wmo:42044:1,2002-08-01T02:30:00Z,26.1914,-97.0507,2.0,300.5736364,3.774771516,-99999.0,'11133222,11111222,99999999' 
TABS,ioos:station:wmo:42044:1,2002-08-01T03:30:00Z,26.1914,-97.0507,2.0,294.0933379,4.458396573,-99999.0,'11133222,11111222,99999999' 
TABS,ioos:station:wmo:42044:1,2002-08-01T04:00:00Z,26.1914,-97.0507,2.0,320.1017075,9.463218269,-99999.0,'11133222,11111222,99999999' 
TABS,ioos:station:wmo:42044:1,2002-08-01T04:30:00Z,26.1914,-97.0507,2.0,310.0623129,8.296872905,-99999.0,'11133222,11111222,99999999' 
TABS,ioos:station:wmo:42044:1,2002-08-01T05:00:00Z,26.1914,-97.0507,2.0,312.9789555,7.216979978,-99999.0,'11133222,11111222,99999999' 
TABS,ioos:station:wmo:42044:1,2002-08-01T05:30:00Z,26.1914,-97.0507,2.0,308.667766,11.7317731,-99999.0,'11111222,11111222,99999999' 
TABS,ioos:station:wmo:42044:1,2002-08-01T06:30:00Z,26.1914,-97.0507,2.0,317.9768831,12.93629391,-99999.0,'11111222,11111222,99999999' 
TABS,ioos:station:wmo:42044:1,2002-08-01T07:00:00Z,26.1914,-97.0507,2.0,322.1906002,12.3156567,-99999.0,'11111222,11111222,99999999' 
TABS,ioos:station:wmo:42044:1,2002-08-01T07:30:00Z,26.1914,-97.0507,2.0,324.6680493,6.48433497,-99999.0,'11133222,11111222,99999999' 
TABS,ioos:station:wmo:42044:1,2002-08-01T08:00:00Z,26.1914,-97.0507,2.0,349.8189143,4.978393315,-99999.0,'11133222,11111222,99999999' 
TABS,ioos:station:wmo:42044:1,2002-08-01T08:30:00Z,26.1914,-97.0507,2.0,345.7822377,6.880770306,-99999.0,'11133222,11111222,99999999' 
TABS,ioos:station:wmo:42044:1,2002-08-01T09:30:00Z,26.1914,-97.0507,2.0,3.41288183,6.551618121,-99999.0,'11133222,11111222,99999999' 
TABS,ioos:station:wmo:42044:1,2002-08-01T10:00:00Z,26.1914,-97.0507,2.0,356.0792249,5.703349893,-99999.0,'11133222,11111222,99999999' 
TABS,ioos:station:wmo:42044:1,2002-08-01T10:30:00Z,26.1914,-97.0507,2.0,7.831881679,2.715326868,-99999.0,'11133222,11111222,99999999' 
TABS,ioos:station:wmo:42044:1,2002-08-01T11:00:00Z,26.1914,-97.0507,2.0,2.958593875,3.875164513,-99999.0,'11133222,11111222,99999999' 
TABS,ioos:station:wmo:42044:1,2002-08-01T11:30:00Z,26.1914,-97.0507,2.0,329.743844,3.334186557,-99999.0,'11133222,11111222,99999999' 
TABS,ioos:station:wmo:42044:1,2002-08-01T12:30:00Z,26.1914,-97.0507,2.0,355.322996,26.97984618,-99999.0,'11111222,11111222,99999999' 
TABS,ioos:station:wmo:42044:1,2002-08-01T13:00:00Z,26.1914,-97.0507,2.0,1.05585767,28.22479052,-99999.0,'11111222,11111222,99999999' 
TABS,ioos:station:wmo:42044:1,2002-08-01T13:30:00Z,26.1914,-97.0507,2.0,4.948617559,29.098457,-99999.0,'11111222,11111222,99999999' 
TABS,ioos:station:wmo:42044:1,2002-08-01T14:00:00Z,26.1914,-97.0507,2.0,6.56663186,29.64446997,-99999.0,'11111222,11111222,99999999' 
TABS,ioos:station:wmo:42044:1,2002-08-01T14:30:00Z,26.1914,-97.0507,2.0,16.94490486,29.06167407,-99999.0,'11111222,11111222,99999999' 
TABS,ioos:station:wmo:42044:1,2002-08-01T15:30:00Z,26.1914,-97.0507,2.0,23.141668,26.36109254,-99999.0,'11111222,11111222,99999999' 
TABS,ioos:station:wmo:42044:1,2002-08-01T16:00:00Z,26.1914,-97.0507,2.0,31.48628989,27.83880745,-99999.0,'11111222,11111222,99999999' 
TABS,ioos:station:wmo:42044:1,2002-08-01T16:30:00Z,26.1914,-97.0507,2.0,32.74811522,24.2908316,-99999.0,'11111222,11111222,99999999' 
TABS,ioos:station:wmo:42044:1,2002-08-01T17:00:00Z,26.1914,-97.0507,2.0,34.68418796,22.86263546,-99999.0,'11111222,11111222,99999999' 
TABS,ioos:station:wmo:42044:1,2002-08-01T17:30:00Z,26.1914,-97.0507,2.0,40.68372721,21.13881028,-99999.0,'11111222,11111222,99999999' 
TABS,ioos:station:wmo:42044:1,2002-08-01T18:30:00Z,26.1914,-97.0507,2.0,42.60550072,23.35491811,-99999.0,'11111222,11111222,99999999' 
TABS,ioos:station:wmo:42044:1,2002-08-01T19:00:00Z,26.1914,-97.0507,2.0,44.88334571,24.28916837,-99999.0,'11111222,11111222,99999999' 
TABS,ioos:station:wmo:42044:1,2002-08-01T19:30:00Z,26.1914,-97.0507,2.0,51.56278839,20.10752347,-99999.0,'11111222,11111222,99999999' 
TABS,ioos:station:wmo:42044:1,2002-08-01T20:00:00Z,26.1914,-97.0507,2.0,47.94578973,19.67649613,-99999.0,'11111222,11111222,99999999' 
TABS,ioos:station:wmo:42044:1,2002-08-01T20:30:00Z,26.1914,-97.0507,2.0,49.46883433,15.97260154,-99999.0,'11111222,11111222,99999999' 
TABS,ioos:station:wmo:42044:1,2002-08-01T21:30:00Z,26.1914,-97.0507,2.0,42.6021911,16.90050887,-99999.0,'11111222,11111222,99999999' 
TABS,ioos:station:wmo:42044:1,2002-08-01T22:00:00Z,26.1914,-97.0507,2.0,38.70541909,15.73607321,-99999.0,'11111222,11111222,99999999' 
TABS,ioos:station:wmo:42044:1,2002-08-01T22:30:00Z,26.1914,-97.0507,2.0,31.1125288,16.52737426,-99999.0,'11111222,11111222,99999999' 
TABS,ioos:station:wmo:42044:1,2002-08-01T23:00:00Z,26.1914,-97.0507,2.0,33.26579478,14.60288328,-99999.0,'11111222,11111222,99999999' 
TABS,ioos:station:wmo:42044:1,2002-08-01T23:30:00Z,26.1914,-97.0507,2.0,30.81308385,15.63729516,-99999.0,'11111222,11111222,99999999' 
TABS,ioos:station:wmo:42044:1,2002-08-02T00:30:00Z,26.1914,-97.0507,2.0,15.24987649,9.276642712,-99999.0,'11133222,11111222,99999999' 
TABS,ioos:station:wmo:42044:1,2002-08-02T01:00:00Z,26.1914,-97.0507,2.0,359.2667359,7.030576079,-99999.0,'11133222,11144222,99999999' 
TABS,ioos:station:wmo:42044:1,2002-08-02T01:30:00Z,26.1914,-97.0507,2.0,323.5493725,3.28208775,-99999.0,'11133222,11111222,99999999' 
TABS,ioos:station:wmo:42044:1,2002-08-02T02:00:00Z,26.1914,-97.0507,2.0,349.7508917,6.463133915,-99999.0,'11133222,11111222,99999999' 
TABS,ioos:station:wmo:42044:1,2002-08-02T02:30:00Z,26.1914,-97.0507,2.0,343.0832442,6.804447075,-99999.0,'11133222,11111222,99999999' 
TABS,ioos:station:wmo:42044:1,2002-08-02T03:30:00Z,26.1914,-97.0507,2.0,344.8303095,9.438908835,-99999.0,'11133222,11111222,99999999' 
TABS,ioos:station:wmo:42044:1,2002-08-02T04:00:00Z,26.1914,-97.0507,2.0,336.1051049,10.3687222,-99999.0,'11111222,11111222,99999999' 
TABS,ioos:station:wmo:42044:1,2002-08-02T04:30:00Z,26.1914,-97.0507,2.0,322.6383684,10.48038644,-99999.0,'11111222,11111222,99999999' 
TABS,ioos:station:wmo:42044:1,2002-08-02T05:00:00Z,26.1914,-97.0507,2.0,318.2570068,12.57144781,-99999.0,'11111222,11111222,99999999' 
TABS,ioos:station:wmo:42044:1,2002-08-02T05:30:00Z,26.1914,-97.0507,2.0,318.7999495,11.2039859,-99999.0,'11111222,11111222,99999999' 
TABS,ioos:station:wmo:42044:1,2002-08-02T06:30:00Z,26.1914,-97.0507,2.0,319.3856593,13.96381395,-99999.0,'11111222,11111222,99999999' 
TABS,ioos:station:wmo:42044:1,2002-08-02T07:00:00Z,26.1914,-97.0507,2.0,326.0256593,16.19467196,-99999.0,'11111222,11111222,99999999' 
TABS,ioos:station:wmo:42044:1,2002-08-02T07:30:00Z,26.1914,-97.0507,2.0,340.4833497,13.23016629,-99999.0,'11111222,11111222,99999999' 
TABS,ioos:station:wmo:42044:1,2002-08-02T08:00:00Z,26.1914,-97.0507,2.0,347.5662574,5.898347226,-99999.0,'11133222,11111222,99999999' 
TABS,ioos:station:wmo:42044:1,2002-08-02T08:30:00Z,26.1914,-97.0507,2.0,350.8860567,3.787822594,-99999.0,'11133222,11111222,99999999' 
TABS,ioos:station:wmo:42044:1,2002-08-02T09:30:00Z,26.1914,-97.0507,2.0,350.3293851,7.679127555,-99999.0,'11133222,11111222,99999999' 
TABS,ioos:station:wmo:42044:1,2002-08-02T10:00:00Z,26.1914,-97.0507,2.0,328.882644,11.49387663,-99999.0,'11111222,11111222,99999999' 
TABS,ioos:station:wmo:42044:1,2002-08-02T10:30:00Z,26.1914,-97.0507,2.0,344.0775792,6.925720179,-99999.0,'11133222,11111222,99999999' 
TABS,ioos:station:wmo:42044:1,2002-08-02T11:00:00Z,26.1914,-97.0507,2.0,336.9245381,3.673962439,-99999.0,'11133222,11111222,99999999' 
TABS,ioos:station:wmo:42044:1,2002-08-02T11:30:00Z,26.1914,-97.0507,2.0,338.198852,1.884807682,-99999.0,'11133222,11111222,99999999' 
TABS,ioos:station:wmo:42044:1,2002-08-02T12:30:00Z,26.1914,-97.0507,2.0,357.3107519,12.57384985,-99999.0,'11111222,11111222,99999999' 
TABS,ioos:station:wmo:42044:1,2002-08-02T13:00:00Z,26.1914,-97.0507,2.0,0.396909875,10.11024233,-99999.0,'11111222,11111222,99999999' 
TABS,ioos:station:wmo:42044:1,2002-08-02T13:30:00Z,26.1914,-97.0507,2.0,359.7260707,10.45011962,-99999.0,'11111222,11144222,99999999' 
TABS,ioos:station:wmo:42044:1,2002-08-02T14:00:00Z,26.1914,-97.0507,2.0,1.788684741,12.49608739,-99999.0,'11111222,11111222,99999999' 
TABS,ioos:station:wmo:42044:1,2002-08-02T14:30:00Z,26.1914,-97.0507,2.0,10.72389227,11.50085214,-99999.0,'11111222,11111222,99999999' 
TABS,ioos:station:wmo:42044:1,2002-08-02T15:30:00Z,26.1914,-97.0507,2.0,21.33543144,10.4995619,-99999.0,'11111222,11111222,99999999' 
TABS,ioos:station:wmo:42044:1,2002-08-02T16:00:00Z,26.1914,-97.0507,2.0,32.28205449,8.126038395,-99999.0,'11133222,11111222,99999999' 
TABS,ioos:station:wmo:42044:1,2002-08-02T16:30:00Z,26.1914,-97.0507,2.0,11.86520226,7.490026702,-99999.0,'11133222,11111222,99999999' 
TABS,ioos:station:wmo:42044:1,2002-08-02T17:00:00Z,26.1914,-97.0507,2.0,24.23843964,9.913954811,-99999.0,'11133222,11111222,99999999' 
TABS,ioos:station:wmo:42044:1,2002-08-02T17:30:00Z,26.1914,-97.0507,2.0,353.8937394,6.768404539,-99999.0,'11133222,11111222,99999999' 
TABS,ioos:station:wmo:42044:1,2002-08-02T18:00:00Z,26.1914,-97.0507,2.0,15.10127331,5.872801716,-99999.0,'11133222,11111222,99999999' 
TABS,ioos:station:wmo:42044:1,2002-08-02T18:30:00Z,26.1914,-97.0507,2.0,33.73324626,3.691530848,-99999.0,'11133222,11111222,99999999' 
TABS,ioos:station:wmo:42044:1,2002-08-02T19:00:00Z,26.1914,-97.0507,2.0,9.715927504,4.088642807,-99999.0,'11133222,11111222,99999999' 
TABS,ioos:station:wmo:42044:1,2002-08-02T19:30:00Z,26.1914,-97.0507,2.0,35.616562,3.382809483,-99999.0,'11133222,11111222,99999999' 
TABS,ioos:station:wmo:42044:1,2002-08-02T20:00:00Z,26.1914,-97.0507,2.0,33.56900288,5.244702089,-99999.0,'11133222,11111222,99999999' 
TABS,ioos:station:wmo:42044:1,2002-08-02T20:30:00Z,26.1914,-97.0507,2.0,37.04003814,3.370014837,-99999.0,'11133222,11111222,99999999' 
TABS,ioos:station:wmo:42044:1,2002-08-02T21:00:00Z,26.1914,-97.0507,2.0,356.4787653,3.256148031,-99999.0,'11133222,11111222,99999999' 
TABS,ioos:station:wmo:42044:1,2002-08-02T21:30:00Z,26.1914,-97.0507,2.0,11.51955133,3.755649078,-99999.0,'11133222,11111222,99999999' 
TABS,ioos:station:wmo:42044:1,2002-08-02T22:00:00Z,26.1914,-97.0507,2.0,350.1246375,2.507149776,-99999.0,'11133222,11111222,99999999' 
TABS,ioos:station:wmo:42044:1,2002-08-02T22:30:00Z,26.1914,-97.0507,2.0,346.6316537,3.330240232,-99999.0,'11133222,11111222,99999999' 
TABS,ioos:station:wmo:42044:1,2002-08-02T23:00:00Z,26.1914,-97.0507,2.0,347.2674301,4.264879834,-99999.0,'11133222,11111222,99999999' 
TABS,ioos:station:wmo:42044:1,2002-08-02T23:30:00Z,26.1914,-97.0507,2.0,327.8421819,2.386063704,-99999.0,'11133222,11111222,99999999' 
TABS,ioos:station:wmo:42044:1,2002-08-03T00:00:00Z,26.1914,-97.0507,2.0,320.8862898,5.516230597,-99999.0,'11133222,11111222,99999999' 
TABS,ioos:station:wmo:42044:1,2002-08-03T00:30:00Z,26.1914,-97.0507,2.0,318.6767016,7.829642393,-99999.0,'11133222,11111222,99999999' 
TABS,ioos:station:wmo:42044:1,2002-08-03T01:00:00Z,26.1914,-97.0507,2.0,310.2415585,6.903948146,-99999.0,'11133222,11111222,99999999' 
TABS,ioos:station:wmo:42044:1,2002-08-03T01:30:00Z,26.1914,-97.0507,2.0,307.1924163,2.134033739,-99999.0,'11133222,11111222,99999999' 
TABS,ioos:station:wmo:42044:1,2002-08-03T02:00:00Z,26.1914,-97.0507,2.0,324.100997,4.604660682,-99999.0,'11133222,11111222,99999999' 
TABS,ioos:station:wmo:42044:1,2002-08-03T02:30:00Z,26.1914,-97.0507,2.0,305.5718051,11.82703682,-99999.0,'11111222,11111222,99999999' 
TABS,ioos:station:wmo:42044:1,2002-08-03T03:00:00Z,26.1914,-97.0507,2.0,309.4833792,12.28277249,-99999.0,'11111222,11111222,99999999' 
TABS,ioos:station:wmo:42044:1,2002-08-03T03:30:00Z,26.1914,-97.0507,2.0,311.3705077,12.28587807,-99999.0,'11111222,11111222,99999999' 
TABS,ioos:station:wmo:42044:1,2002-08-03T04:00:00Z,26.1914,-97.0507,2.0,312.5791091,6.695207241,-99999.0,'11133222,11111222,99999999' 
TABS,ioos:station:wmo:42044:1,2002-08-03T04:30:00Z,26.1914,-97.0507,2.0,292.9048737,5.883918762,-99999.0,'11133222,11111222,99999999' 
TABS,ioos:station:wmo:42044:1,2002-08-03T05:00:00Z,26.1914,-97.0507,2.0,317.8647281,10.04639736,-99999.0,'11111222,11111222,99999999' 
TABS,ioos:station:wmo:42044:1,2002-08-03T05:30:00Z,26.1914,-97.0507,2.0,318.6241998,8.502282047,-99999.0,'11133222,11111222,99999999' 
TABS,ioos:station:wmo:42044:1,2002-08-03T06:00:00Z,26.1914,-97.0507,2.0,318.7489412,10.70729191,-99999.0,'11111222,11111222,99999999' 
TABS,ioos:station:wmo:42044:1,2002-08-03T06:30:00Z,26.1914,-97.0507,2.0,307.6835642,13.10332019,-99999.0,'11111222,11111222,99999999' 
TABS,ioos:station:wmo:42044:1,2002-08-03T07:00:00Z,26.1914,-97.0507,2.0,301.8332416,12.3235912,-99999.0,'11111222,11111222,99999999' 
TABS,ioos:station:wmo:42044:1,2002-08-03T07:30:00Z,26.1914,-97.0507,2.0,304.5109795,13.94381942,-99999.0,'11111222,11111222,99999999' 
TABS,ioos:station:wmo:42044:1,2002-08-03T08:00:00Z,26.1914,-97.0507,2.0,307.936858,8.16541487,-99999.0,'11133222,11111222,99999999' 
TABS,ioos:station:wmo:42044:1,2002-08-03T08:30:00Z,26.1914,-97.0507,2.0,312.1743718,12.76465824,-99999.0,'11111222,11111222,99999999' 
TABS,ioos:station:wmo:42044:1,2002-08-03T09:00:00Z,26.1914,-97.0507,2.0,324.8179551,9.372064874,-99999.0,'11133222,11111222,99999999' 
TABS,ioos:station:wmo:42044:1,2002-08-03T09:30:00Z,26.1914,-97.0507,2.0,319.5075438,6.298587143,-99999.0,'11133222,11111222,99999999' 
TABS,ioos:station:wmo:42044:1,2002-08-03T10:00:00Z,26.1914,-97.0507,2.0,315.6823745,4.752094275,-99999.0,'11133222,11111222,99999999' 
TABS,ioos:station:wmo:42044:1,2002-08-03T10:30:00Z,26.1914,-97.0507,2.0,324.0435912,4.768605666,-99999.0,'11133222,11111222,99999999' 
TABS,ioos:station:wmo:42044:1,2002-08-03T11:00:00Z,26.1914,-97.0507,2.0,324.8581716,2.188995203,-99999.0,'11133222,11111222,99999999' 
TABS,ioos:station:wmo:42044:1,2002-08-03T11:30:00Z,26.1914,-97.0507,2.0,345.9176816,3.000166662,-99999.0,'11133222,11111222,99999999' 
TABS,ioos:station:wmo:42044:1,2002-08-03T12:00:00Z,26.1914,-97.0507,2.0,340.6607118,6.009076468,-99999.0,'11133222,11111222,99999999' 
TABS,ioos:station:wmo:42044:1,2002-08-03T12:30:00Z,26.1914,-97.0507,2.0,341.6644321,3.655598446,-99999.0,'11133222,11111222,99999999' 
TABS,ioos:station:wmo:42044:1,2002-08-03T13:00:00Z,26.1914,-97.0507,2.0,319.7303155,6.002566118,-99999.0,'11133222,11111222,99999999' 
TABS,ioos:station:wmo:42044:1,2002-08-03T13:30:00Z,26.1914,-97.0507,2.0,340.1292245,5.678071856,-99999.0,'11133222,11111222,99999999' 
TABS,ioos:station:wmo:42044:1,2002-08-03T14:00:00Z,26.1914,-97.0507,2.0,338.7822905,1.823622768,-99999.0,'11133222,11111222,99999999' 
TABS,ioos:station:wmo:42044:1,2002-08-03T14:30:00Z,26.1914,-97.0507,2.0,292.7258226,3.33923644,-99999.0,'11133222,11111222,99999999' 
TABS,ioos:station:wmo:42044:1,2002-08-03T15:00:00Z,26.1914,-97.0507,2.0,309.6973503,4.054935265,-99999.0,'11133222,11111222,99999999' 
TABS,ioos:station:wmo:42044:1,2002-08-03T15:30:00Z,26.1914,-97.0507,2.0,313.7652775,4.264844663,-99999.0,'11133222,11111222,99999999' 
TABS,ioos:station:wmo:42044:1,2002-08-03T16:00:00Z,26.1914,-97.0507,2.0,292.348477,0.973087869,-99999.0,'11133222,11111222,99999999' 
TABS,ioos:station:wmo:42044:1,2002-08-03T16:30:00Z,26.1914,-97.0507,2.0,327.9949021,0.754718491,-99999.0,'11133222,11111222,99999999' 
TABS,ioos:station:wmo:42044:1,2002-08-03T17:00:00Z,26.1914,-97.0507,2.0,331.9910992,0.532353266,-99999.0,'11133222,11111222,99999999' 
TABS,ioos:station:wmo:42044:1,2002-08-03T17:30:00Z,26.1914,-97.0507,2.0,253.7122538,2.531600284,-99999.0,'11133222,11111222,99999999' 
TABS,ioos:station:wmo:42044:1,2002-08-03T18:00:00Z,26.1914,-97.0507,2.0,270.0004209,1.7,-99999.0,'11133222,11111222,99999999' 
TABS,ioos:station:wmo:42044:1,2002-08-03T18:30:00Z,26.1914,-97.0507,2.0,313.3637425,0.495176736,-99999.0,'11133222,11111222,99999999' 
TABS,ioos:station:wmo:42044:1,2002-08-03T19:00:00Z,26.1914,-97.0507,2.0,246.5753225,3.999624982,-99999.0,'11133222,11111222,99999999' 
TABS,ioos:station:wmo:42044:1,2002-08-03T19:30:00Z,26.1914,-97.0507,2.0,206.2044334,3.5554184,-99999.0,'11133222,11111222,99999999' 
TABS,ioos:station:wmo:42044:1,2002-08-03T20:00:00Z,26.1914,-97.0507,2.0,218.8014598,5.042866248,-99999.0,'11133222,11111222,99999999' 
TABS,ioos:station:wmo:42044:1,2002-08-03T20:30:00Z,26.1914,-97.0507,2.0,244.3380858,11.06096741,-99999.0,'11111222,11111222,99999999' 
TABS,ioos:station:wmo:42044:1,2002-08-03T21:00:00Z,26.1914,-97.0507,2.0,249.0726386,12.65475405,-99999.0,'11111222,11111222,99999999' 
TABS,ioos:station:wmo:42044:1,2002-08-03T21:30:00Z,26.1914,-97.0507,2.0,238.3114365,16.27651683,-99999.0,'11111222,11111222,99999999' 
TABS,ioos:station:wmo:42044:1,2002-08-03T22:00:00Z,26.1914,-97.0507,2.0,249.3171101,17.49769413,-99999.0,'11111222,11111222,99999999' 
TABS,ioos:station:wmo:42044:1,2002-08-03T22:30:00Z,26.1914,-97.0507,2.0,254.7989831,20.28986939,-99999.0,'11111222,11111222,99999999' 
TABS,ioos:station:wmo:42044:1,2002-08-03T23:00:00Z,26.1914,-97.0507,2.0,264.713912,21.6018564,-99999.0,'11111222,11111222,99999999' 
TABS,ioos:station:wmo:42044:1,2002-08-03T23:30:00Z,26.1914,-97.0507,2.0,262.0142728,22.38707216,-99999.0,'11111222,11111222,99999999' 
TABS,ioos:station:wmo:42044:1,2002-08-04T00:00:00Z,26.1914,-97.0507,2.0,263.7649089,23.38833256,-99999.0,'11111222,11111222,99999999' 
TABS,ioos:station:wmo:42044:1,2002-08-04T00:30:00Z,26.1914,-97.0507,2.0,271.8315539,26.9137437,-99999.0,'11111222,11111222,99999999' 
TABS,ioos:station:wmo:42044:1,2002-08-04T01:00:00Z,26.1914,-97.0507,2.0,265.5134192,28.63773909,-99999.0,'11111222,11111222,99999999' 
TABS,ioos:station:wmo:42044:1,2002-08-04T01:30:00Z,26.1914,-97.0507,2.0,280.283462,9.411163584,-99999.0,'11133222,11111222,99999999' 
TABS,ioos:station:wmo:42044:1,2002-08-04T02:00:00Z,26.1914,-97.0507,2.0,279.2638649,18.9470974,-99999.0,'11111222,11111222,99999999' 
TABS,ioos:station:wmo:42044:1,2002-08-04T02:30:00Z,26.1914,-97.0507,2.0,283.3206258,34.15895929,-99999.0,'11111222,11111222,99999999' 
TABS,ioos:station:wmo:42044:1,2002-08-04T03:00:00Z,26.1914,-97.0507,2.0,284.6866085,33.56666501,-99999.0,'11111222,11111222,99999999' 
TABS,ioos:station:wmo:42044:1,2002-08-04T03:30:00Z,26.1914,-97.0507,2.0,286.1304395,29.40767587,-99999.0,'11111222,11111222,99999999' 
TABS,ioos:station:wmo:42044:1,2002-08-04T04:00:00Z,26.1914,-97.0507,2.0,285.7634683,33.24005114,-99999.0,'11111222,11111222,99999999' 
TABS,ioos:station:wmo:42044:1,2002-08-04T04:30:00Z,26.1914,-97.0507,2.0,293.1417635,30.25433027,-99999.0,'11111222,11111222,99999999' 
TABS,ioos:station:wmo:42044:1,2002-08-04T05:00:00Z,26.1914,-97.0507,2.0,291.6463118,28.05866889,-99999.0,'11111222,11111222,99999999' 
TABS,ioos:station:wmo:42044:1,2002-08-04T05:30:00Z,26.1914,-97.0507,2.0,297.2170132,26.74063013,-99999.0,'11111222,11111222,99999999' 
TABS,ioos:station:wmo:42044:1,2002-08-04T06:00:00Z,26.1914,-97.0507,2.0,292.8319984,27.47249534,-99999.0,'11111222,11111222,99999999' 
TABS,ioos:station:wmo:42044:1,2002-08-04T06:30:00Z,26.1914,-97.0507,2.0,302.9938404,23.72628079,-99999.0,'11111222,11111222,99999999' 
TABS,ioos:station:wmo:42044:1,2002-08-04T07:00:00Z,26.1914,-97.0507,2.0,294.5166146,24.26790679,-99999.0,'11111222,11111222,99999999' 
TABS,ioos:station:wmo:42044:1,2002-08-04T07:30:00Z,26.1914,-97.0507,2.0,296.3302718,22.88411239,-99999.0,'11111222,11111222,99999999' 
TABS,ioos:station:wmo:42044:1,2002-08-04T08:00:00Z,26.1914,-97.0507,2.0,308.6374456,19.71537725,-99999.0,'11111222,11111222,99999999' 
TABS,ioos:station:wmo:42044:1,2002-08-04T08:30:00Z,26.1914,-97.0507,2.0,313.9682896,16.88137731,-99999.0,'11111222,11111222,99999999' 
TABS,ioos:station:wmo:42044:1,2002-08-04T09:00:00Z,26.1914,-97.0507,2.0,309.7066067,18.47062803,-99999.0,'11111222,11111222,99999999' 
TABS,ioos:station:wmo:42044:1,2002-08-04T09:30:00Z,26.1914,-97.0507,2.0,313.738028,15.08624871,-99999.0,'11111222,11111222,99999999' 
TABS,ioos:station:wmo:42044:1,2002-08-04T10:00:00Z,26.1914,-97.0507,2.0,328.0219688,13.46303458,-99999.0,'11111222,11111222,99999999' 
TABS,ioos:station:wmo:42044:1,2002-08-04T10:30:00Z,26.1914,-97.0507,2.0,321.2837963,11.04773732,-99999.0,'11111222,11111222,99999999' 
TABS,ioos:station:wmo:42044:1,2002-08-04T11:00:00Z,26.1914,-97.0507,2.0,337.7694781,7.929413597,-99999.0,'11133222,11111222,99999999' 
TABS,ioos:station:wmo:42044:1,2002-08-04T11:30:00Z,26.1914,-97.0507,2.0,18.51181712,2.362223529,-99999.0,'11133222,11111222,99999999' 
TABS,ioos:station:wmo:42044:1,2002-08-04T12:00:00Z,26.1914,-97.0507,2.0,7.606864545,9.443098009,-99999.0,'11133222,11111222,99999999' 
TABS,ioos:station:wmo:42044:1,2002-08-04T12:30:00Z,26.1914,-97.0507,2.0,26.26871758,10.37102213,-99999.0,'11111222,11111222,99999999' 
TABS,ioos:station:wmo:42044:1,2002-08-04T13:00:00Z,26.1914,-97.0507,2.0,55.20178524,7.026592346,-99999.0,'11133222,11111222,99999999' 
TABS,ioos:station:wmo:42044:1,2002-08-04T13:30:00Z,26.1914,-97.0507,2.0,48.86928076,8.802329237,-99999.0,'11133222,11111222,99999999' 
TABS,ioos:station:wmo:42044:1,2002-08-04T14:00:00Z,26.1914,-97.0507,2.0,56.60774496,8.53972482,-99999.0,'11133222,11111222,99999999' 
TABS,ioos:station:wmo:42044:1,2002-08-04T14:30:00Z,26.1914,-97.0507,2.0,56.98010521,6.165914369,-99999.0,'11133222,11111222,99999999' 
TABS,ioos:station:wmo:42044:1,2002-08-04T15:00:00Z,26.1914,-97.0507,2.0,77.9399643,11.53457845,-99999.0,'11111222,11111222,99999999' 
TABS,ioos:station:wmo:42044:1,2002-08-04T15:30:00Z,26.1914,-97.0507,2.0,82.78771859,7.327980622,-99999.0,'11133222,11111222,99999999' 
TABS,ioos:station:wmo:42044:1,2002-08-04T16:00:00Z,26.1914,-97.0507,2.0,136.8102506,10.51992871,-99999.0,'11111222,11111222,99999999' 
TABS,ioos:station:wmo:42044:1,2002-08-04T16:30:00Z,26.1914,-97.0507,2.0,136.4900081,11.69242917,-99999.0,'11111222,11111222,99999999' 
TABS,ioos:station:wmo:42044:1,2002-08-04T17:00:00Z,26.1914,-97.0507,2.0,154.111646,12.8717054,-99999.0,'11111222,11111222,99999999' 
TABS,ioos:station:wmo:42044:1,2002-08-04T17:30:00Z,26.1914,-97.0507,2.0,146.1886685,15.74242675,-99999.0,'11111222,11111222,99999999' 
TABS,ioos:station:wmo:42044:1,2002-08-04T18:00:00Z,26.1914,-97.0507,2.0,159.1769967,19.35413393,-99999.0,'11111222,11111222,99999999' 
TABS,ioos:station:wmo:42044:1,2002-08-04T18:30:00Z,26.1914,-97.0507,2.0,157.9662423,19.24562288,-99999.0,'11111222,11111222,99999999' 
TABS,ioos:station:wmo:42044:1,2002-08-04T19:00:00Z,26.1914,-97.0507,2.0,168.4403018,20.71006036,-99999.0,'11111222,11111222,99999999' 
TABS,ioos:station:wmo:42044:1,2002-08-04T19:30:00Z,26.1914,-97.0507,2.0,173.4686768,21.53978876,-99999.0,'11111222,11111222,99999999' 
TABS,ioos:station:wmo:42044:1,2002-08-04T20:00:00Z,26.1914,-97.0507,2.0,169.2477067,24.97853478,-99999.0,'11111222,11111222,99999999' 
TABS,ioos:station:wmo:42044:1,2002-08-04T20:30:00Z,26.1914,-97.0507,2.0,180.5676168,20.18099106,-99999.0,'11111222,11111222,99999999' 
TABS,ioos:station:wmo:42044:1,2002-08-04T21:00:00Z,26.1914,-97.0507,2.0,172.9858221,24.32201677,-99999.0,'11111222,11111222,99999999' 
TABS,ioos:station:wmo:42044:1,2002-08-04T21:30:00Z,26.1914,-97.0507,2.0,184.5498537,28.74057933,-99999.0,'11111222,11111222,99999999' 
TABS,ioos:station:wmo:42044:1,2002-08-04T22:00:00Z,26.1914,-97.0507,2.0,186.7892084,29.43642811,-99999.0,'11111222,11111222,99999999' 
TABS,ioos:station:wmo:42044:1,2002-08-04T22:30:00Z,26.1914,-97.0507,2.0,197.7278032,31.52714545,-99999.0,'11111222,11111222,99999999' 